Location: Austin
(30.3000°N, 97.7500°W)
Time: 10:42:57
(UTC-05:00)

USA 238 - Pass Details

Date: 03 April 2024
Orbit: 925 x 1286 km, 63.4° (Epoch: 15 April)

Event Time Altitude Azimuth Distance (km) Brightness Sun altitude
Rises 06:11:36 0° 330° (NNW) 4,060 6.6 -14.7°
Reaches altitude 10° 06:14:16 10° 330° (NNW) 3,139 6.0 -14.1°
Maximum altitude 06:21:56 87° 242° (WSW) 1,261 4.0 -12.5°
Drops below altitude 10° 06:29:57 10° 155° (SSE) 3,276 6.4 -10.9°
Sets 06:32:47 0° 154° (SSE) 4,244 7.0 -10.3°
